Location: Arbon
(43.0005°N, 0.7472°E)
Time: 01:02:03
(UTC+00:00)

S-56A Canister/Altair - Pass Details

Date: 05 December 2020
Orbit: 633 x 2499 km, 38.9° (Epoch: 19 January)

Event Time Altitude Azimuth Distance (km) Brightness Sun altitude
Rises 20:03:32 0° 267° (W) 5,797 12.9 -39.6°
Reaches altitude 10° 20:07:43 10° 266° (W) 4,571 12.1 -40.4°
Enters shadow 20:17:49 60° 235° (SW) 1,836 9.3 -42.2°
